Wells Aircraft, Inc. Hutchinson Municipal
(888) 496-5545
800 Airport Road
Hutchinson, KS 67501
(change)
Av Fuel Aviation Fuel Jet A: $4.64
100LL: $4.59
Prices current
Oct 6, 2017

Location

Wells Aircraft is located on the south end of the Hutchinson Municipal Airport (KHUT), in Hutchinson, Kansas.

Wells Aircraft, Inc.
800 Airport Road
Hutchinson, KS 67501
Map
Wells Location at KHUT

Quick Links


AirNav Information
(KHUT)

Hutchinson Weather

Hutchinson (KHUT)
Airport Diagram

Additional Resources

They say, "if you don't like the weather in Kansas, wait five minutes and it'll change." Be prepared with these aviation resources.

KHUT 232352Z 33013KT 10SM CLR 17/M04 A3018 RMK AO2 SLP210 T01671044 10217 20161 53011                KHUT 232352Z 33013KT 10SM CLR 17/M04 A3018 RMK AO2 SLP210 T01671044 10217 20161 53011                KHUT 232352Z 33013KT 10SM CLR 17/M04 A3018 RMK AO2 SLP210 T01671044 10217 20161 53011                KHUT 232352Z 33013KT 10SM CLR 17/M04 A3018 RMK AO2 SLP210 T01671044 10217 20161 53011                KHUT 232352Z 33013KT 10SM CLR 17/M04 A3018 RMK AO2 SLP210 T01671044 10217 20161 53011                KHUT 232352Z 33013KT 10SM CLR 17/M04 A3018 RMK AO2 SLP210 T01671044 10217 20161 53011                
 
 
Cirrus Aircraft